When you browse on this site, cookies collect data to enhance your experience and personalize the content and advertising you see.
Visit our Privacy Policy to learn more. By continuing to use the site, you agree to this use of cookies and data.
  • In Austria
  • List of Countries
  • For 7 days
  • Water Temperature
  • Weather Map
  • News
  • Weather Widgets
  • user-avatar
    Login

    Hourly Weather Giumri

    Today, 29 February, Saturday

    Time Temperature Precipitation Wind Pressure Humidity
    00:00 -2°C° 0 mm 1 mps 629 mmHg 76%
    01:00 -2°C° 0 mm 1 mps 629 mmHg 77%
    02:00 -2°C° 0 mm 1 mps 628 mmHg 78%
    03:00 -2°C° 0 mm 1 mps 628 mmHg 76%
    04:00 -2°C° 0 mm 1 mps 628 mmHg 78%
    05:00 -1°C° 0 mm 1 mps 628 mmHg 80%
    06:00 -1°C° 0 mm 1 mps 628 mmHg 82%
    07:00 0°C° 0 mm 1 mps 628 mmHg 81%
    08:00 +1°C° 0 mm 1 mps 628 mmHg 80%
    09:00 +1°C° 0 mm 1 mps 628 mmHg 79%
    10:00 +2°C° 0 mm 1 mps 628 mmHg 79%
    11:00 +3°C° 0 mm 1 mps 628 mmHg 79%
    12:00 +4°C° 0 mm 1 mps 628 mmHg 78%
    13:00 +4°C° 0.1 mm 1 mps 628 mmHg 81%
    14:00 +4°C° 0.1 mm 1 mps 627 mmHg 83%
    15:00 +4°C° 0.1 mm 1 mps 626 mmHg 86%
    16:00 +4°C° 0.3 mm 1 mps 626 mmHg 87%
    17:00 +3°C° 0.3 mm 1 mps 626 mmHg 89%
    18:00 +1°C° 0.3 mm 2 mps 626 mmHg 91%
    19:00 +2°C° 0.5 mm 1 mps 627 mmHg 92%
    20:00 +2°C° 0.5 mm 1 mps 627 mmHg 94%
    21:00 +2°C° 0.5 mm 1 mps 627 mmHg 95%
    22:00 +2°C° 0.7 mm 1 mps 627 mmHg 96%
    23:00 +2°C° 0.7 mm 1 mps 627 mmHg 96%

    Tomorrow, 1 March, Sunday

    Time Temperature Precipitation Wind Pressure Humidity
    00:00 +2°C° 0.7 mm 1 mps 627 mmHg 97%
    01:00 +2°C° 0.5 mm 1 mps 627 mmHg 97%
    02:00 +2°C° 0.5 mm 1 mps 627 mmHg 97%
    03:00 +2°C° 0.5 mm 1 mps 627 mmHg 97%
    04:00 +2°C° 0 mm 1 mps 627 mmHg 97%
    05:00 +2°C° 0 mm 1 mps 627 mmHg 96%
    06:00 +2°C° 0 mm 1 mps 627 mmHg 96%
    07:00 +2°C° 0.1 mm 1 mps 628 mmHg 95%
    08:00 +2°C° 0.1 mm 1 mps 628 mmHg 95%
    09:00 +2°C° 0.1 mm 0 mps 629 mmHg 94%
    10:00 +3°C° 0.1 mm 1 mps 629 mmHg 94%
    11:00 +3°C° 0.1 mm 1 mps 629 mmHg 94%
    12:00 +3°C° 0.1 mm 1 mps 629 mmHg 94%
    13:00 +4°C° 0.1 mm 1 mps 629 mmHg 93%
    14:00 +4°C° 0.1 mm 1 mps 629 mmHg 92%
    15:00 +4°C° 0.1 mm 1 mps 629 mmHg 91%
    16:00 +3°C° 0.1 mm 1 mps 629 mmHg 89%
    17:00 +1°C° 0.1 mm 2 mps 629 mmHg 88%
    18:00 +1°C° 0.1 mm 2 mps 629 mmHg 86%
    19:00 -1°C° 0 mm 2 mps 630 mmHg 86%
    20:00 -1°C° 0 mm 2 mps 630 mmHg 85%
    21:00 -1°C° 0 mm 2 mps 631 mmHg 84%
    22:00 -2°C° 0 mm 2 mps 631 mmHg 84%
    23:00 -2°C° 0 mm 2 mps 631 mmHg 85%

    Day after tomorrow, 2 March, Monday

    Time Temperature Precipitation Wind Pressure Humidity
    00:00 -3°C° 0 mm 2 mps 631 mmHg 85%
    01:00 -3°C° 0 mm 2 mps 631 mmHg 84%
    02:00 -4°C° 0 mm 2 mps 630 mmHg 84%
    03:00 -4°C° 0 mm 2 mps 630 mmHg 83%
    04:00 -4°C° 0 mm 2 mps 631 mmHg 83%
    05:00 -4°C° 0 mm 2 mps 631 mmHg 83%
    06:00 -4°C° 0 mm 2 mps 631 mmHg 83%
    07:00 -3°C° 0 mm 2 mps 631 mmHg 83%
    08:00 0°C° 0 mm 1 mps 632 mmHg 82%
    09:00 0°C° 0 mm 1 mps 632 mmHg 81%
    10:00 +1°C° 0 mm 1 mps 632 mmHg 80%
    11:00 +2°C° 0 mm 1 mps 632 mmHg 79%
    12:00 +3°C° 0 mm 1 mps 632 mmHg 79%
    13:00 +3°C° 0 mm 1 mps 632 mmHg 78%
    14:00 +4°C° 0 mm 1 mps 632 mmHg 78%
    15:00 +4°C° 0 mm 1 mps 632 mmHg 78%
    16:00 +3°C° 0 mm 1 mps 632 mmHg 81%
    17:00 +2°C° 0 mm 1 mps 632 mmHg 83%
    18:00 +1°C° 0 mm 1 mps 632 mmHg 86%
    19:00 0°C° 0 mm 1 mps 632 mmHg 86%
    20:00 0°C° 0 mm 1 mps 633 mmHg 86%
    21:00 -1°C° 0 mm 1 mps 633 mmHg 86%
    22:00 -1°C° 0 mm 1 mps 633 mmHg 85%
    23:00 -1°C° 0 mm 1 mps 633 mmHg 85%

    3 March, Tuesday

    Time Temperature Precipitation Wind Pressure Humidity
    00:00 -1°C° 0 mm 1 mps 633 mmHg 84%
    01:00 -2°C° 0 mm 1 mps 633 mmHg 84%
    02:00 -2°C° 0 mm 1 mps 633 mmHg 84%
    03:00 -2°C° 0 mm 1 mps 633 mmHg 84%
    04:00 -2°C° 0 mm 1 mps 633 mmHg 85%
    05:00 -2°C° 0 mm 1 mps 634 mmHg 86%
    06:00 -3°C° 0 mm 1 mps 634 mmHg 86%
    07:00 -2°C° 0 mm 1 mps 634 mmHg 85%
    08:00 -1°C° 0 mm 1 mps 635 mmHg 83%
    09:00 0°C° 0 mm 1 mps 635 mmHg 81%
    10:00 +1°C° 0 mm 1 mps 635 mmHg 79%
    11:00 +2°C° 0 mm 1 mps 635 mmHg 77%
    12:00 +3°C° 0 mm 1 mps 635 mmHg 75%
    13:00 +4°C° 0 mm 1 mps 635 mmHg 74%
    14:00 +4°C° 0 mm 1 mps 635 mmHg 73%
    15:00 +4°C° 0 mm 0 mps 635 mmHg 72%
    16:00 +2°C° 0 mm 0 mps 634 mmHg 73%
    17:00 +1°C° 0 mm 0 mps 634 mmHg 74%
    18:00 0°C° 0 mm 0 mps 634 mmHg 75%
    19:00 0°C° 0 mm 0 mps 634 mmHg 74%
    20:00 0°C° 0 mm 1 mps 635 mmHg 72%
    21:00 0°C° 0 mm 1 mps 635 mmHg 71%
    22:00 0°C° 0 mm 1 mps 635 mmHg 69%
    23:00 0°C° 0 mm 1 mps 635 mmHg 68%

    4 March, Wednesday

    Time Temperature Precipitation Wind Pressure Humidity
    00:00 -1°C° 0 mm 1 mps 635 mmHg 67%
    01:00 -1°C° 0 mm 1 mps 635 mmHg 66%
    02:00 -1°C° 0 mm 1 mps 635 mmHg 65%
    03:00 -1°C° 0 mm 1 mps 634 mmHg 63%
    04:00 -1°C° 0 mm 1 mps 634 mmHg 62%
    05:00 -2°C° 0 mm 1 mps 634 mmHg 61%
    06:00 -2°C° 0 mm 1 mps 634 mmHg 60%
    07:00 -1°C° 0 mm 1 mps 635 mmHg 60%
    08:00 -1°C° 0 mm 0 mps 635 mmHg 59%
    09:00 +1°C° 0 mm 0 mps 635 mmHg 59%
    10:00 +2°C° 0 mm 0 mps 635 mmHg 58%
    11:00 +3°C° 0 mm 0 mps 635 mmHg 57%
    12:00 +5°C° 0 mm 1 mps 635 mmHg 56%
    13:00 +5°C° 0 mm 1 mps 635 mmHg 57%
    14:00 +6°C° 0 mm 1 mps 635 mmHg 58%
    15:00 +6°C° 0 mm 1 mps 634 mmHg 59%
    16:00 +5°C° 0 mm 1 mps 634 mmHg 60%
    17:00 +2°C° 0 mm 0 mps 634 mmHg 61%
    18:00 +1°C° 0 mm 0 mps 633 mmHg 62%
    19:00 +1°C° 0 mm 0 mps 633 mmHg 61%
    20:00 +2°C° 0 mm 1 mps 634 mmHg 60%
    21:00 +2°C° 0 mm 1 mps 634 mmHg 59%
    22:00 +1°C° 0 mm 1 mps 634 mmHg 59%
    23:00 +1°C° 0 mm 1 mps 634 mmHg 59%

    5 March, Thursday

    Time Temperature Precipitation Wind Pressure Humidity
    00:00 +1°C° 0 mm 1 mps 633 mmHg 59%
    01:00 0°C° 0 mm 1 mps 633 mmHg 58%
    02:00 0°C° 0 mm 1 mps 633 mmHg 58%
    03:00 0°C° 0 mm 1 mps 633 mmHg 57%
    04:00 0°C° 0 mm 1 mps 633 mmHg 57%
    05:00 -1°C° 0 mm 1 mps 633 mmHg 56%
    06:00 -1°C° 0 mm 1 mps 632 mmHg 56%
    07:00 0°C° 0 mm 1 mps 633 mmHg 56%
    08:00 +1°C° 0 mm 1 mps 633 mmHg 56%
    09:00 +2°C° 0 mm 1 mps 633 mmHg 56%
    10:00 +4°C° 0 mm 1 mps 633 mmHg 56%
    11:00 +5°C° 0 mm 1 mps 633 mmHg 56%
    12:00 +6°C° 0 mm 1 mps 633 mmHg 56%
    13:00 +6°C° 0 mm 1 mps 632 mmHg 56%
    14:00 +7°C° 0 mm 1 mps 632 mmHg 55%
    15:00 +7°C° 0 mm 1 mps 632 mmHg 55%
    16:00 +6°C° 0 mm 1 mps 632 mmHg 56%
    17:00 +5°C° 0 mm 1 mps 631 mmHg 56%
    18:00 +3°C° 0 mm 1 mps 631 mmHg 56%
    19:00 +3°C° 0 mm 1 mps 631 mmHg 55%
    20:00 +2°C° 0 mm 1 mps 631 mmHg 55%
    21:00 +2°C° 0 mm 1 mps 631 mmHg 54%
    22:00 +2°C° 0 mm 1 mps 631 mmHg 55%
    23:00 +1°C° 0 mm 1 mps 631 mmHg 55%
    Show more